Weather History for Glenwood, MN

Change the Weather History Date:

Wednesday, November 20, 2013

  Actual Average Record
Temperature  
Mean Temperature 37 °F -  
Max Temperature 48 °F 35 °F 61 °F (1962)
Min Temperature 26 °F 19 °F 0 °F (1969)
Degree Days  
Heating Degree Days 28    
Moisture  
Dew Point 30 °F    
Average Humidity 70    
Maximum Humidity 100    
Minimum Humidity 50    
Precipitation  
Precipitation 0.00 in - - ()
Sea Level Pressure  
Sea Level Pressure 29.84 in    
Wind  
Wind Speed 16 mph (SSE)    
Max Wind Speed 26 mph    
Max Gust Speed 34 mph    
Visibility 10 miles    
Events      
Averages and records for this station are not official NWS values.
T = Trace of Precipitation, MM = Missing Value Source: NWS Daily Summary

Daily Weather History Graph

Daily Weather History Graph

Search for Another Location

Airport:

Trip Planner

Search our weather history database for the weather conditions in past years. The results will help you decide how hot, cold, wet, or windy it might be!

Date:

Astronomy

Nov. 20, 2013 Rise Set
Actual Time 7:27 AM CST 4:45 PM CST
Civil Twilight 6:55 AM CST 5:18 PM CST
Nautical Twilight 6:18 AM CST 5:54 PM CST
Astronomical Twilight 5:43 AM CST 6:29 PM CST
Moon 7:29 PM CST 9:54 AM CST
Length of Visible Light 10h 23m
Length of Day
9h 17m
Waning Gibbous, 91% of the Moon is Illuminated
Nov 20
Waning Gibbous
Nov 25
Last Quarter
Dec 2
New
Dec 9
First Quarter
Dec 17
Full

Hourly Weather History & Observations

Time (CST) Temp. Windchill Dew Point Humidity Pressure Visibility Wind Dir Wind Speed Gust Speed Precip Events Conditions
12:13 AM 42.8 °F 33.3 °F 30.2 °F 61% 29.73 in 10.0 mi SSE 24.2 mph 34.5 mph N/A   Clear
12:34 AM 44.6 °F 35.3 °F 30.2 °F 57% 29.72 in 10.0 mi South 26.5 mph 32.2 mph N/A   Clear
12:53 AM 44.6 °F 35.5 °F 30.2 °F 57% 29.73 in 10.0 mi SSE 25.3 mph 33.4 mph N/A   Clear
1:13 AM 42.8 °F 32.9 °F 30.2 °F 61% 29.73 in 10.0 mi South 26.5 mph 34.5 mph N/A   Clear
1:34 AM 42.8 °F 33.8 °F 30.2 °F 61% 29.74 in 10.0 mi South 21.9 mph 32.2 mph N/A   Clear
1:53 AM 42.8 °F 33.5 °F 30.2 °F 61% 29.74 in 10.0 mi South 23.0 mph 28.8 mph N/A   Clear
2:13 AM 42.8 °F 34.0 °F 30.2 °F 61% 29.74 in 10.0 mi South 20.7 mph 27.6 mph N/A   Clear
2:33 AM 42.8 °F 34.3 °F 30.2 °F 61% 29.75 in 10.0 mi South 19.6 mph - N/A   Clear
2:53 AM 42.8 °F 34.3 °F 30.2 °F 61% 29.76 in 10.0 mi South 19.6 mph - N/A   Clear
3:14 AM 42.8 °F 33.8 °F 30.2 °F 61% 29.76 in 10.0 mi South 21.9 mph 27.6 mph N/A   Clear
3:33 AM 42.8 °F 34.0 °F 30.2 °F 61% 29.76 in 10.0 mi South 20.7 mph 26.5 mph N/A   Clear
3:53 AM 41.0 °F 32.2 °F 30.2 °F 65% 29.76 in 10.0 mi South 18.4 mph 24.2 mph N/A   Clear
4:13 AM 41.0 °F 32.5 °F 30.2 °F 65% 29.76 in 10.0 mi SSE 17.3 mph 21.9 mph N/A   Clear
4:33 AM 41.0 °F 33.1 °F 30.2 °F 65% 29.76 in 10.0 mi SSE 15.0 mph - N/A   Clear
4:54 AM 41.0 °F 32.5 °F 30.2 °F 65% 29.76 in 10.0 mi SSE 17.3 mph - N/A   Clear
5:13 AM 41.0 °F 33.1 °F 30.2 °F 65% 29.76 in 10.0 mi SSE 15.0 mph 21.9 mph N/A   Clear
5:33 AM 41.0 °F 33.1 °F 30.2 °F 65% 29.77 in 10.0 mi SSE 15.0 mph 19.6 mph N/A   Clear
5:53 AM 41.0 °F 32.8 °F 30.2 °F 65% 29.77 in 10.0 mi SSE 16.1 mph 21.9 mph N/A   Clear
6:13 AM 39.2 °F 30.8 °F 30.2 °F 70% 29.77 in 10.0 mi SSE 15.0 mph - N/A   Clear
6:34 AM 39.2 °F 30.8 °F 30.2 °F 70% 29.78 in 10.0 mi SSE 15.0 mph 21.9 mph N/A   Clear
6:53 AM 39.2 °F 31.2 °F 30.2 °F 70% 29.78 in 10.0 mi SSE 13.8 mph - N/A   Clear
7:13 AM 39.2 °F 30.5 °F 30.2 °F 70% 29.79 in 10.0 mi SSE 16.1 mph 20.7 mph N/A   Clear
7:33 AM 39.2 °F 31.2 °F 30.2 °F 70% 29.79 in 10.0 mi SSE 13.8 mph 18.4 mph N/A   Clear
7:53 AM 39.2 °F 32.0 °F 30.2 °F 70% 29.79 in 10.0 mi SSE 11.5 mph - N/A   Clear
8:14 AM 39.2 °F 32.0 °F 30.2 °F 70% 29.80 in 10.0 mi SSE 11.5 mph - N/A   Clear
8:33 AM 41.0 °F 33.9 °F 30.2 °F 65% 29.80 in 10.0 mi SSE 12.7 mph - N/A   Clear
8:53 AM 41.0 °F 34.3 °F 30.2 °F 65% 29.81 in 10.0 mi SSE 11.5 mph - N/A   Clear
9:13 AM 41.0 °F 33.9 °F 30.2 °F 65% 29.82 in 10.0 mi SSE 12.7 mph - N/A   Clear
9:33 AM 41.0 °F 33.1 °F 28.4 °F 61% 29.82 in 10.0 mi South 15.0 mph - N/A   Clear
9:54 AM 42.8 °F 35.4 °F 30.2 °F 61% 29.83 in 10.0 mi SSE 15.0 mph - N/A   Clear
10:13 AM 42.8 °F 34.8 °F 30.2 °F 61% 29.83 in 10.0 mi SSE 17.3 mph - N/A   Clear
10:34 AM 42.8 °F 36.2 °F 30.2 °F 61% 29.84 in 10.0 mi South 12.7 mph - N/A   Clear
10:53 AM 44.6 °F 38.1 °F 30.2 °F 57% 29.84 in 10.0 mi South 13.8 mph - N/A   Clear
11:13 AM 46.4 °F 40.4 °F 30.2 °F 53% 29.83 in 10.0 mi South 13.8 mph - N/A   Clear
11:33 AM 44.6 °F 37.4 °F 30.2 °F 57% 29.84 in 10.0 mi SSE 16.1 mph - N/A   Clear
11:53 AM 46.4 °F 40.7 °F 30.2 °F 53% 29.83 in 10.0 mi South 12.7 mph - N/A   Clear
12:14 PM 46.4 °F 40.7 °F 30.2 °F 53% 29.82 in 10.0 mi South 12.7 mph 19.6 mph N/A   Clear
12:33 PM 48.2 °F - 30.2 °F 50% 29.82 in 10.0 mi South 12.7 mph - N/A   Clear
12:53 PM 48.2 °F - 30.2 °F 50% 29.82 in 10.0 mi SSE 12.7 mph - N/A   Clear
1:13 PM 48.2 °F - 32.0 °F 54% 29.82 in 10.0 mi South 11.5 mph - N/A   Clear
1:33 PM 48.2 °F - 32.0 °F 54% 29.81 in 10.0 mi South 11.5 mph - N/A   Clear
1:54 PM 48.2 °F - 32.0 °F 54% 29.82 in 10.0 mi South 12.7 mph - N/A   Clear
2:13 PM 48.2 °F - 33.8 °F 58% 29.82 in 10.0 mi SSE 9.2 mph - N/A   Clear
2:33 PM 48.2 °F - 33.8 °F 58% 29.82 in 10.0 mi SSE 9.2 mph - N/A   Clear
2:53 PM 48.2 °F - 33.8 °F 58% 29.82 in 10.0 mi SE 10.4 mph - N/A   Clear
3:13 PM 48.2 °F - 33.8 °F 58% 29.82 in 10.0 mi SSE 10.4 mph - N/A   Clear
3:34 PM 46.4 °F 41.5 °F 33.8 °F 62% 29.83 in 10.0 mi SE 10.4 mph - N/A   Clear
3:53 PM 46.4 °F 41.5 °F 33.8 °F 62% 29.82 in 10.0 mi SE 10.4 mph - N/A   Clear
4:13 PM 44.6 °F 40.2 °F 33.8 °F 66% 29.84 in 10.0 mi SE 8.1 mph - N/A   Clear
4:33 PM 42.8 °F 38.6 °F 33.8 °F 70% 29.85 in 10.0 mi SE 6.9 mph - N/A   Clear
4:53 PM 41.0 °F 37.1 °F 32.0 °F 70% 29.86 in 10.0 mi ESE 5.8 mph - N/A   Clear
5:13 PM 37.4 °F 32.8 °F 30.2 °F 75% 29.86 in 10.0 mi ESE 5.8 mph - N/A   Clear
5:33 PM 35.6 °F 29.9 °F 30.2 °F 81% 29.88 in 10.0 mi ESE 6.9 mph - N/A   Clear
5:53 PM 33.8 °F 27.0 °F 30.2 °F 87% 29.88 in 10.0 mi ESE 8.1 mph - N/A   Clear
6:14 PM 33.8 °F 27.0 °F 30.2 °F 87% 29.89 in 10.0 mi ESE 8.1 mph - N/A   Clear
6:33 PM 33.8 °F 27.0 °F 30.2 °F 87% 29.90 in 10.0 mi ESE 8.1 mph - N/A   Clear
6:54 PM 33.8 °F 27.7 °F 30.2 °F 87% 29.91 in 10.0 mi ESE 6.9 mph - N/A   Clear
7:13 PM 32.0 °F 26.4 °F 30.2 °F 93% 29.91 in 10.0 mi ESE 5.8 mph - N/A   Clear
7:33 PM 32.0 °F 28.7 °F 30.2 °F 93% 29.93 in 10.0 mi SE 3.5 mph - N/A   Clear
7:53 PM 30.2 °F - 28.4 °F 93% 29.93 in 10.0 mi Calm Calm - N/A   Clear
8:13 PM 33.8 °F - 30.2 °F 87% 29.94 in 10.0 mi Calm Calm - N/A   Clear
8:34 PM 33.8 °F - 30.2 °F 87% 29.95 in 10.0 mi Calm Calm - N/A   Clear
8:53 PM 30.2 °F - 28.4 °F 93% 29.95 in 10.0 mi Calm Calm - N/A   Clear
9:13 PM 33.8 °F - 30.2 °F 87% 29.96 in 10.0 mi Calm Calm - N/A   Clear
9:33 PM 26.6 °F 20.0 °F 26.6 °F 100% 29.97 in 7.0 mi WSW 5.8 mph - N/A   Clear
9:53 PM 28.4 °F 22.2 °F 26.6 °F 93% 29.98 in 5.0 mi West 5.8 mph - N/A   Clear
10:14 PM 28.4 °F 20.4 °F 26.6 °F 93% 29.99 in 5.0 mi West 8.1 mph - N/A   Mostly Cloudy
10:33 PM 28.4 °F 19.1 °F 26.6 °F 93% 30.00 in 5.0 mi West 10.4 mph - N/A   Overcast
10:53 PM 28.4 °F 19.1 °F 28.4 °F 100% 30.00 in 5.0 mi WNW 10.4 mph - N/A   Overcast
11:13 PM 30.2 °F 20.2 °F 28.4 °F 93% 30.01 in 5.0 mi WNW 12.7 mph - N/A   Mostly Cloudy
11:33 PM 30.2 °F 22.6 °F 28.4 °F 93% 30.02 in 5.0 mi West 8.1 mph - N/A   Scattered Clouds
11:54 PM 28.4 °F 18.0 °F 26.6 °F 93% 30.03 in 7.0 mi West 12.7 mph 18.4 mph N/A   Overcast